Weather History for Harlan, KY

Change the Weather History Date:

Thursday, December 19, 2013

  Actual Average (KLOZ) Record (KLOZ)
Temperature  
Mean Temperature 44 °F 38 °F  
Max Temperature 60 °F 47 °F 68 °F (2008)
Min Temperature 28 °F 29 °F -8 °F (1963)
Degree Days  
Heating Degree Days 21 27  
Month to date heating degree days 480  
Since 1 July heating degree days 1310  
Cooling Degree Days 0 0  
Month to date cooling degree days 0  
Year to date cooling degree days 1190  
Moisture  
Dew Point 20 °F    
Average Humidity 46    
Maximum Humidity 86    
Minimum Humidity 16    
Precipitation  
Precipitation 0.00 in 0.13 in 0.89 in (1957)
Month to date precipitation 2.71  
Year to date precipitation 45.61  
Sea Level Pressure  
Sea Level Pressure 30.19 in    
Wind  
Wind Speed 3 mph (East)    
Max Wind Speed 9 mph    
Max Gust Speed -    
Visibility 10 miles    
Events      
T = Trace of Precipitation, MM = Missing Value Source: NWS Daily Summary

Daily Weather History Graph

Daily Weather History Graph

Search for Another Location

Airport:

Trip Planner

Search our weather history database for the weather conditions in past years. The results will help you decide how hot, cold, wet, or windy it might be!

Date:

Astronomy

Dec. 19, 2013 Rise Set
Actual Time 7:41 AM EST 5:19 PM EST
Civil Twilight 7:12 AM EST 5:48 PM EST
Nautical Twilight 6:40 AM EST 6:21 PM EST
Astronomical Twilight 6:08 AM EST 6:52 PM EST
Moon 7:41 PM EST (12/19) 9:02 AM EST (12/19)
Length of Visible Light 10h 36m
Length of Day
9h 38m
Waning Gibbous, 95% of the Moon is Illuminated
Dec 19
Waning Gibbous
Dec 25
Last Quarter
Jan 1
New
Jan 7
First Quarter
Jan 15
Full

Hourly Weather History & Observations

Time (EST) Temp. Windchill Dew Point Humidity Pressure Visibility Wind Dir Wind Speed Gust Speed Precip Events Conditions
12:15 AM 32.0 °F 28.7 °F 21.2 °F 64% 30.23 in 10.0 mi ENE 3.5 mph - N/A   Clear
12:35 AM 32.0 °F 28.7 °F 21.2 °F 64% 30.22 in 10.0 mi ENE 3.5 mph - N/A   Clear
12:55 AM 33.8 °F 29.6 °F 19.4 °F 56% 30.22 in 10.0 mi East 4.6 mph - N/A   Clear
1:15 AM 32.0 °F 28.7 °F 19.4 °F 60% 30.21 in 10.0 mi ENE 3.5 mph - N/A   Clear
1:35 AM 33.8 °F 30.8 °F 19.4 °F 56% 30.21 in 10.0 mi NE 3.5 mph - N/A   Clear
1:55 AM 33.8 °F 30.8 °F 19.4 °F 56% 30.21 in 10.0 mi NE 3.5 mph - N/A   Clear
2:15 AM 32.0 °F 28.7 °F 21.2 °F 64% 30.21 in 10.0 mi NE 3.5 mph - N/A   Clear
2:35 AM 30.2 °F - 23.0 °F 75% 30.22 in 10.0 mi Calm Calm - N/A   Clear
2:55 AM 32.0 °F 27.5 °F 21.2 °F 64% 30.22 in 10.0 mi East 4.6 mph - N/A   Clear
3:15 AM 32.0 °F - 21.2 °F 64% 30.22 in 10.0 mi Calm Calm - N/A   Clear
3:35 AM 32.0 °F 28.7 °F 21.2 °F 64% 30.22 in 10.0 mi East 3.5 mph - N/A   Clear
3:55 AM 32.0 °F 28.7 °F 21.2 °F 64% 30.22 in 10.0 mi East 3.5 mph - N/A   Clear
4:15 AM 32.0 °F 27.5 °F 21.2 °F 64% 30.22 in 10.0 mi East 4.6 mph - N/A   Clear
4:35 AM 30.2 °F 26.7 °F 23.0 °F 75% 30.22 in 10.0 mi ESE 3.5 mph - N/A   Clear
4:55 AM 30.2 °F 26.7 °F 23.0 °F 75% 30.22 in 10.0 mi ENE 3.5 mph - N/A   Clear
5:15 AM 28.4 °F - 23.0 °F 80% 30.22 in 10.0 mi Calm Calm - N/A   Clear
5:35 AM 30.2 °F 25.4 °F 23.0 °F 75% 30.22 in 10.0 mi East 4.6 mph - N/A   Clear
5:55 AM 30.2 °F - 23.0 °F 75% 30.22 in 10.0 mi Calm Calm - N/A   Clear
6:15 AM 30.2 °F 26.7 °F 21.2 °F 69% 30.22 in 10.0 mi SSE 3.5 mph - N/A   Clear
6:35 AM 28.4 °F 23.3 °F 23.0 °F 80% 30.22 in 10.0 mi SE 4.6 mph - N/A   Clear
6:55 AM 30.2 °F - 23.0 °F 75% 30.22 in 10.0 mi Calm Calm - N/A   Clear
7:15 AM 28.4 °F - 23.0 °F 80% 30.23 in 10.0 mi Calm Calm - N/A   Clear
7:35 AM 28.4 °F - 23.0 °F 80% 30.23 in 10.0 mi Calm Calm - N/A   Clear
7:55 AM 28.4 °F 24.6 °F 23.0 °F 80% 30.23 in 10.0 mi South 3.5 mph - N/A   Clear
8:15 AM 28.4 °F - 23.0 °F 80% 30.23 in 10.0 mi Calm Calm - N/A   Clear
8:35 AM 30.2 °F - 23.0 °F 75% 30.23 in 10.0 mi Calm Calm - N/A   Clear
8:55 AM 30.2 °F - 26.6 °F 86% 30.24 in 10.0 mi Calm Calm - N/A   Clear
9:15 AM 32.0 °F - 23.0 °F 69% 30.25 in 10.0 mi Calm Calm - N/A   Clear
9:35 AM 35.6 °F - 23.0 °F 60% 30.25 in 10.0 mi Calm Calm - N/A   Clear
9:55 AM 37.4 °F 34.9 °F 26.6 °F 65% 30.25 in 10.0 mi East 3.5 mph - N/A   Clear
10:15 AM 41.0 °F - 26.6 °F 57% 30.26 in 10.0 mi Calm Calm - N/A   Clear
10:35 AM 44.6 °F - 23.0 °F 43% 30.26 in 10.0 mi Calm Calm - N/A   Clear
10:55 AM 46.4 °F - 24.8 °F 43% 30.25 in 10.0 mi Calm Calm - N/A   Clear
11:15 AM 50.0 °F - 19.4 °F 30% 30.25 in 10.0 mi Calm Calm - N/A   Clear
11:35 AM 51.8 °F - 21.2 °F 30% 30.25 in 10.0 mi Calm Calm - N/A   Clear
11:55 AM 53.6 °F - 19.4 °F 26% 30.24 in 10.0 mi WSW 3.5 mph - N/A   Clear
12:15 PM 55.4 °F - 19.4 °F 25% 30.22 in 10.0 mi West 5.8 mph - N/A   Clear
12:35 PM 59.0 °F - 17.6 °F 20% 30.21 in 10.0 mi SW 4.6 mph - N/A   Clear
12:55 PM 60.8 °F - 15.8 °F 17% 30.19 in 10.0 mi WSW 6.9 mph - N/A   Clear
1:15 PM 60.8 °F - 14.0 °F 16% 30.18 in 10.0 mi West 6.9 mph - N/A   Clear
1:35 PM 60.8 °F - 14.0 °F 16% 30.18 in 10.0 mi West 9.2 mph - N/A   Clear
1:55 PM 59.0 °F - 14.0 °F 17% 30.17 in 10.0 mi West 6.9 mph - N/A   Clear
2:15 PM 60.8 °F - 15.8 °F 17% 30.16 in 10.0 mi West 8.1 mph - N/A   Clear
2:35 PM 59.0 °F - 17.6 °F 20% 30.16 in 10.0 mi West 8.1 mph - N/A   Clear
2:55 PM 55.4 °F - 17.6 °F 23% 30.16 in 10.0 mi WSW 4.6 mph - N/A   Clear
3:15 PM 55.4 °F - 17.6 °F 23% 30.16 in 10.0 mi Calm Calm - N/A   Clear
3:55 PM 55.4 °F - 19.4 °F 25% 30.16 in 10.0 mi Calm Calm - N/A   Clear
4:15 PM 55.4 °F - 19.4 °F 25% 30.15 in 10.0 mi SSE 5.8 mph - N/A   Clear
4:35 PM 55.4 °F - 19.4 °F 25% 30.15 in 10.0 mi East 5.8 mph - N/A   Clear
4:55 PM 55.4 °F - 17.6 °F 23% 30.15 in 10.0 mi ESE 8.1 mph - N/A   Clear
5:15 PM 53.6 °F - 19.4 °F 26% 30.15 in 10.0 mi Calm Calm - N/A   Clear
5:35 PM 55.4 °F - 17.6 °F 23% 30.15 in 10.0 mi Calm Calm - N/A   Clear
5:55 PM 53.6 °F - 17.6 °F 24% 30.15 in 10.0 mi Calm Calm - N/A   Clear
6:15 PM 53.6 °F - 17.6 °F 24% 30.14 in 10.0 mi Calm Calm - N/A   Clear
6:35 PM 51.8 °F - 17.6 °F 26% 30.14 in 10.0 mi NE 3.5 mph - N/A   Clear
6:55 PM 51.8 °F - 17.6 °F 26% 30.14 in 10.0 mi East 3.5 mph - N/A   Clear
7:15 PM 51.8 °F - 19.4 °F 28% 30.14 in 10.0 mi East 3.5 mph - N/A   Clear
7:35 PM 50.0 °F - 19.4 °F 30% 30.13 in 10.0 mi East 3.5 mph - N/A   Clear
7:55 PM 50.0 °F - 19.4 °F 30% 30.14 in 10.0 mi SSE 6.9 mph - N/A   Clear
8:15 PM 50.0 °F - 19.4 °F 30% 30.13 in 10.0 mi ENE 4.6 mph - N/A   Clear
8:35 PM 50.0 °F - 19.4 °F 30% 30.14 in 10.0 mi Calm Calm - N/A   Clear
8:55 PM 46.4 °F 43.5 °F 19.4 °F 34% 30.13 in 10.0 mi NE 5.8 mph - N/A   Clear
9:15 PM 48.2 °F - 21.2 °F 34% 30.12 in 10.0 mi NE 4.6 mph - N/A   Clear
9:35 PM 48.2 °F - 21.2 °F 34% 30.13 in 10.0 mi Calm Calm - N/A   Clear
9:55 PM 46.4 °F 45.2 °F 21.2 °F 37% 30.13 in 10.0 mi ESE 3.5 mph - N/A   Clear
10:15 PM 46.4 °F 43.5 °F 21.2 °F 37% 30.13 in 10.0 mi NNE 5.8 mph - N/A   Clear
10:35 PM 48.2 °F - 21.2 °F 34% 30.13 in 10.0 mi NNE 5.8 mph - N/A   Clear
10:55 PM 48.2 °F - 21.2 °F 34% 30.12 in 10.0 mi Calm Calm - N/A   Clear
11:15 PM 46.4 °F - 21.2 °F 37% 30.12 in 10.0 mi Calm Calm - N/A   Clear
11:35 PM 46.4 °F 44.3 °F 21.2 °F 37% 30.12 in 10.0 mi NE 4.6 mph - N/A   Clear
11:55 PM 44.6 °F - 21.2 °F 39% 30.12 in 10.0 mi Calm Calm - N/A   Clear